TIME,DELAY(SENSOR),PRES,OXYGEN,RAWTEMP,T(OPTODE),TCPHASE,FLUOR,BETA(BETA700),BETA(BETA412),BETA(BETA440),CDOM,C(CSC),ED(ED411.90),ED(ED443.80),ED(ED489.40),ED(ED554.70),LU(LU412.20),LU(LU443.80),LU(LU489.40),LU(LU555.00),COMP,TILTX,TILTY,CHECK
1351720165,5802,896.4000244140625000,169.1752929687500000,453.7077941894531000,9.3224382400512700,39.7340202331543000,50,105,62,70,51,1932,2147449389,2147793243,2147572873,2147822162,2147306550,2147459648,2147751780,2148273088,1678,6,14,17651
1351723761,5805,945.0000000000000000,206.9203033447265600,520.6613769531250000,7.2319002151489260,38.4101104736328100,50,101,64,71,50,1927,2147441353,2147798765,2147583552,2147830683,2147306148,2147450285,2147761581,2148279981,3040,6,14,33174
1351727361,5805,10.8000001907348630,215.1024017333984400,527.5297851562500000,7.0157389640808105,38.0543785095214840,50,101,62,70,50,1925,2147438537,2147796443,2147585188,2147830098,2147302436,2147451437,2147768557,2148280704,513,6,14,10094
1351730961,5806,1143.0000000000000000,216.8585968017578000,529.7236938476562000,6.9466228485107420,37.9931488037109400,50,103,63,71,51,1924,2147437339,2147793956,2147581275,2147831195,2147300480,2147451108,2147766162,2148282560,302,6,14,27956
1351734561,5804,11.3999996185302730,218.1647949218750000,531.0468139648438000,6.9049210548400880,37.9430198669433600,50,101,63,70,50,1922,2147437211,2147797878,2147582134,2147831780,2147305883,2147450770,2147769334,2148280164,335,6,14,300
1351738161,5804,1241.0000000000000000,218.1851043701172000,530.7916870117188000,6.9129619598388670,37.9369888305664060,50,99,63,71,52,1921,2147438473,2147795885,2147583990,2147831369,2147302985,2147448155,2147761545,2148279460,3496,6,14,39712
1351741761,5805,12.8999996185302730,218.7745971679687500,531.5836181640625000,6.8879990577697750,37.9187698364257800,50,100,63,71,50,1921,2147435757,2147797348,2147583844,2147830628,2147306221,2147451977,2147764544,2148283090,3150,6,14,15693
1351745361,5805,12.6000003814697270,218.4351043701172000,531.2739257812500000,6.8977618217468260,37.9316711425781250,50,102,62,70,52,1920,2147437458,2147797284,2147585664,2147830820,2147303963,2147452242,2147763072,2148282697,513,6,14,38096
1351748961,5806,1046.0000000000000000,217.7890930175781200,531.2885131835938000,6.8973011970520020,37.9690399169921900,50,101,62,71,51,1917,2147435584,2147796480,2147581412,2147834011,2147304320,2147450752,2147762185,2148281362,3167,6,15,26882
1351752561,5804,1312.0000000000000000,217.5088043212890600,531.4489135742188000,6.8922457695007320,37.9872703552246100,50,99,62,71,51,1914,2147436489,2147795876,2147583881,2147833874,2147302509,2147448685,2147766326,2148281353,3400,6,14,40794
1351756161,5807,1095.0000000000000000,217.0838928222656200,532.1699829101562000,6.8695111274719240,38.0243682861328100,50,101,63,71,50,1911,2147433755,2147803474,2147583296,2147833179,2147301421,2147449792,2147766272,2148281526,56,6,14,10532
1351759761,5802,1090.0000000000000000,218.5825958251953000,533.4754028320312000,6.8283419609069820,37.9631500244140600,50,101,63,71,51,1908,2147434294,2147796315,2147587638,2147834139,2147304091,2147450550,2147761417,2148281106,3570,6,15,2297
1351763361,5807,1029.0000000000000000,217.8092956542968800,533.3359985351562000,6.8327388763427730,38.0043716430664060,50,103,63,71,52,1904,2147437302,2147795309,2147583853,2147833298,2147304457,2147456557,2147766253,2148283794,21,6,14,3464
1351766961,5802,10.8999996185302730,217.7606964111328000,533.4846801757812000,6.8280467987060550,38.0091209411621100,50,101,64,71,51,1904,2147437385,2147792246,2147585819,2147830381,2147305517,2147449609,2147766290,2148279670,3475,6,15,31655
1351770561,5803,1300.0000000000000000,218.8972015380859400,534.5521240234375000,6.7943778038024900,37.9648399353027340,50,99,63,70,50,1903,2147439277,2147795958,2147585014,2147831606,2147306486,2147455734,2147767113,2148281508,3503,6,14,10722
1351774161,5805,12.8000001907348630,217.2411956787109400,530.7659912109375000,6.9137730598449710,37.9902114868164060,50,102,62,72,52,1902,2147437577,2147795885,2147583350,2147829760,2147305737,2147453796,2147763456,2148283035,162,6,14,58317
1351777761,5803,1232.0000000000000000,215.8161010742187500,531.6912841796875000,6.8846039772033690,38.0880088806152340,50,100,62,70,51,1903,2147435090,2147795300,2147585563,2147830272,2147305600,2147450560,2147765010,2148281078,3584,6,15,51433
1351781361,5807,12.1000003814697270,216.9501953125000000,532.2269287109375000,6.8677158355712890,38.0326118469238300,50,104,63,70,51,1903,2147436397,2147795858,2147584676,2147828608,2147306267,2147457901,2147764516,2148279268,60,6,14,57107
1351784961,5804,12.1000003814697270,217.0379943847656200,532.7258300781250000,6.8519840240478520,38.0363883972168000,50,100,62,70,51,1902,2147436937,2147796242,2147584009,2147830939,2147306029,2147450660,2147765211,2148283840,215,6,14,40459
1351788561,5801,12.6999998092651370,216.7061004638672000,530.8657836914062000,6.9106249809265140,38.0228805541992200,50,114,64,70,50,1903,2147437824,2147797046,2147583177,2147829330,2147305289,2147453750,2147764845,2148284187,802,6,14,48081
1351792161,5805,13.3999996185302730,216.4801940917968800,529.8497924804688000,6.9426498413085940,38.0168190002441400,50,101,63,71,50,1902,2147437997,2147798500,2147584612,2147829330,2147302537,2147452489,2147762477,2148280704,70,6,14,34540
1351795761,5802,1089.0000000000000000,216.3307037353515600,530.2089843750000000,6.9313302040100100,38.0325813293457000,50,101,65,70,51,1904,2147441856,2147796114,2147584192,2147830857,2147301997,2147453577,2147768192,2148281124,3414,6,14,2732
1351799361,5806,1097.0000000000000000,216.3892974853515600,530.2014770507812000,6.9315662384033200,38.0291404724121100,50,117,62,70,51,1903,2147437632,2147796013,2147583853,2147832996,2147307026,2147449517,2147763245,2148279369,20,6,14,28358
1351802961,5805,1283.0000000000000000,217.0119018554687500,531.2269287109375000,6.8992419242858890,38.0116004943847660,50,102,63,71,51,1903,2147438756,2147794139,2147580635,2147831414,2147305673,2147452800,2147763227,2148283574,2937,6,15,2139
1351806561,5805,1280.0000000000000000,216.7640075683593800,530.9124145507812000,6.9091567993164060,38.0200004577636700,50,101,63,72,51,1902,2147438921,2147794230,2147582637,2147830473,2147308132,2147454518,2147765778,2148283200,3315,6,14,26989
1351810161,5801,12.1000003814697270,218.4904022216797000,533.0582885742188000,6.8414969444274900,37.9605598449707000,50,100,62,117,50,1903,2147437769,2147796562,2147583469,2147830656,2147303890,2147448402,2147764589,2148282395,233,6,14,11424
1351813761,5805,12.0000000000000000,218.2236938476562500,532.6041870117188000,6.8558177947998050,37.9674911499023440,50,101,63,70,50,1902,2147433005,2147796507,2147583552,2147831533,2147303277,2147452937,2147771017,2148282121,49,6,14,44172
1351817361,5802,1061.0000000000000000,219.4884033203125000,533.5540161132812000,6.8258647918701170,37.9135818481445300,50,101,63,71,51,1899,2147437312,2147798720,2147581970,2147835611,2147306130,2147449517,2147769837,2148278619,274,6,15,42028
1351820961,5807,13.1999998092651370,218.3296051025390600,531.8024902343750000,6.8810977935791020,37.9477500915527340,50,106,63,70,51,1892,2147438884,2147795584,2147581906,2147829202,2147303670,2147449828,2147769508,2148280219,63,6,14,997
1351824561,5803,1297.0000000000000000,218.3498992919922000,532.1812744140625000,6.8691520690917970,37.9528388977050800,50,101,63,71,50,1893,2147435328,2147797942,2147585124,2147831744,2147305554,2147453010,2147768438,2148280539,379,6,15,64726
1351828161,5803,1079.0000000000000000,218.4506988525390600,533.1912841796875000,6.8373007774353030,37.9657516479492200,50,127,63,70,50,1895,2147437549,2147798189,2147583798,2147827382,2147305590,2147453257,2147768210,2148284498,3337,6,15,37800
1351831761,5804,1039.0000000000000000,217.9185943603515600,531.5106811523438000,6.8902969360351560,37.9653511047363300,50,102,64,71,50,1889,2147436187,2147798829,2147581403,2147829421,2147303789,2147450176,2147767862,2148282294,250,6,15,17195
1351835361,5805,1011.0000000000000000,217.9138946533203000,532.0988159179688000,6.8717541694641110,37.9766197204589840,50,101,66,71,51,1887,2147438893,2147795547,2147582418,2147831579,2147306825,2147453046,2147766080,2148281590,375,6,14,9574
1351838961,5805,12.1999998092651370,216.3912048339843800,532.2604980468750000,6.8666548728942870,38.0658302307128900,50,100,62,69,52,1886,2147435812,2147802029,2147585316,2147834934,2147306514,2147451273,2147765686,2148282422,3302,6,14,53824
1351842561,5802,1334.0000000000000000,216.8108978271484400,532.1978149414062000,6.8686351776123050,38.0403404235839840,50,100,64,71,50,1885,2147435008,2147795648,2147581257,2147833837,2147303643,2147456173,2147765860,2148280969,3490,6,14,49621
1351846161,5803,1022.0000000000000000,216.4217987060547000,532.1630859375000000,6.8697237968444820,38.0619812011718750,50,99,62,71,51,1886,2147432731,2147798198,2147583808,2147830473,2147308498,2147451584,2147766838,2148281627,3438,6,14,20296
1351849761,5803,13.3000001907348630,217.7283020019531200,531.8704833984375000,6.8789520263671875,37.9824485778808600,50,102,63,85,50,1887,2147435657,2147802230,2147582217,2147829348,2147305371,2147452544,2147766701,2148283145,838,6,14,30982
1351853361,5801,1013.0000000000000000,212.8748931884765600,525.3546752929688000,7.0842318534851070,38.1441497802734400,50,101,64,70,50,1889,2147437229,2147799936,2147580598,2147830838,2147305481,2147453842,2147763830,2148279469,3523,6,14,41469
1351856961,5804,10.1999998092651370,212.2783050537109400,525.4769287109375000,7.0803871154785160,38.1805992126464840,50,101,63,71,51,1888,2147437485,2147800786,2147582354,2147828022,2147306998,2147454235,2147764562,2148279506,3556,6,14,8909
1351860561,5804,1044.0000000000000000,211.7891998291015600,524.0197143554688000,7.1262531280517580,38.1828613281250000,50,100,63,71,50,1889,2147434267,2147794761,2147580571,2147828598,2147303954,2147454061,2147765796,2148280054,2990,6,14,54625
1351863655,5803,11.1999998092651370,210.5153045654297000,522.9877929687500000,7.1587262153625490,38.2387504577636700,50,102,63,71,50,1890,2147440146,2147794605,2147581924,2147829814,2147303561,2147451629,2147764589,2148281060,3445,6,14,14872
